Time,TemperatureF,DewpointF,PressureIn,WindDirection,WindDirectionDegrees,WindSpeedMPH,WindSpeedGustMPH,Humidity,HourlyPrecipIn,Conditions,Clouds,dailyrainin,SoftwareType,DateUTC
2013-09-15 00:03:00,63.9,55.0,29.80,SW,221,5.0,14.0,72,0.00,,,0.00,weatherlink.com 1.10,2013-09-15 05:03:00,
2013-09-15 00:18:00,63.6,55.0,29.79,SW,224,7.0,10.0,73,0.00,,,0.00,weatherlink.com 1.10,2013-09-15 05:18:00,
2013-09-15 00:33:00,63.1,55.0,29.79,SSW,204,7.0,11.0,74,0.00,,,0.00,weatherlink.com 1.10,2013-09-15 05:33:00,
2013-09-15 00:48:00,62.5,55.0,29.79,SW,219,6.0,9.0,75,0.00,,,0.00,weatherlink.com 1.10,2013-09-15 05:48:00,
2013-09-15 01:03:00,62.1,54.0,29.79,South,188,4.0,9.0,76,0.00,,,0.00,weatherlink.com 1.10,2013-09-15 06:03:00,
2013-09-15 01:18:00,61.6,54.0,29.78,South,183,4.0,7.0,77,0.00,,,0.00,weatherlink.com 1.10,2013-09-15 06:18:00,
2013-09-15 01:33:00,61.2,55.0,29.78,South,177,4.0,7.0,79,0.00,,,0.00,weatherlink.com 1.10,2013-09-15 06:33:00,
2013-09-15 01:48:00,60.9,54.0,29.78,South,190,7.0,8.0,79,0.00,,,0.00,weatherlink.com 1.10,2013-09-15 06:48:00,
2013-09-15 02:03:00,60.9,54.0,29.78,South,172,4.0,7.0,79,0.00,,,0.00,weatherlink.com 1.10,2013-09-15 07:03:00,
2013-09-15 02:18:00,61.1,55.0,29.78,SSW,200,8.0,10.0,79,0.00,,,0.00,weatherlink.com 1.10,2013-09-15 07:18:00,
2013-09-15 02:33:00,62.1,55.0,29.78,SSW,203,8.0,11.0,77,0.00,,,0.00,weatherlink.com 1.10,2013-09-15 07:33:00,
2013-09-15 02:48:00,62.0,55.0,29.77,SSW,204,4.0,9.0,77,0.00,,,0.00,weatherlink.com 1.10,2013-09-15 07:48:00,
2013-09-15 03:03:00,62.0,55.0,29.77,SSW,195,5.0,6.0,77,0.00,,,0.00,weatherlink.com 1.10,2013-09-15 08:03:00,
2013-09-15 03:18:00,62.2,55.0,29.77,SSW,212,3.0,7.0,77,0.00,,,0.00,weatherlink.com 1.10,2013-09-15 08:18:00,
2013-09-15 03:33:00,62.7,55.0,29.78,SW,235,5.0,7.0,77,0.00,,,0.00,weatherlink.com 1.10,2013-09-15 08:33:00,
2013-09-15 03:48:00,62.9,56.0,29.79,West,264,7.0,11.0,77,0.00,,,0.00,weatherlink.com 1.10,2013-09-15 08:48:00,
2013-09-15 04:03:00,62.8,56.0,29.79,WSW,245,4.0,7.0,78,0.00,,,0.00,weatherlink.com 1.10,2013-09-15 09:03:00,
2013-09-15 04:18:00,62.6,56.0,29.80,NW,323,4.0,9.0,79,0.00,,,0.00,weatherlink.com 1.10,2013-09-15 09:18:00,
2013-09-15 04:33:00,62.8,57.0,29.81,North,357,5.0,9.0,80,0.00,,,0.00,weatherlink.com 1.10,2013-09-15 09:33:00,
2013-09-15 04:48:00,62.4,57.0,29.81,NNW,336,6.0,13.0,82,0.00,,,0.00,weatherlink.com 1.10,2013-09-15 09:48:00,
2013-09-15 05:03:00,61.5,57.0,29.81,NNE,13,9.0,10.0,85,0.00,,,0.00,weatherlink.com 1.10,2013-09-15 10:03:00,
2013-09-15 05:18:00,61.2,58.0,29.82,NNE,15,6.0,10.0,88,0.00,,,0.00,weatherlink.com 1.10,2013-09-15 10:18:00,
2013-09-15 05:33:00,60.7,58.0,29.83,NNW,328,6.0,10.0,90,0.00,,,0.00,weatherlink.com 1.10,2013-09-15 10:33:00,
2013-09-15 05:48:00,59.9,58.0,29.83,NE,50,5.0,11.0,93,0.01,,,0.01,weatherlink.com 1.10,2013-09-15 10:48:00,
2013-09-15 06:03:00,59.6,58.0,29.83,NNE,24,7.0,15.0,94,0.01,,,0.01,weatherlink.com 1.10,2013-09-15 11:03:00,
2013-09-15 06:18:00,59.6,58.0,29.84,North,358,11.0,20.0,93,0.01,,,0.01,weatherlink.com 1.10,2013-09-15 11:18:00,
2013-09-15 06:33:00,59.4,57.0,29.85,NNE,32,14.0,19.0,92,0.01,,,0.01,weatherlink.com 1.10,2013-09-15 11:33:00,
2013-09-15 06:49:00,59.0,57.0,29.86,NW,323,8.0,21.0,92,0.00,,,0.01,weatherlink.com 1.10,2013-09-15 11:49:00,
2013-09-15 07:04:00,58.6,56.0,29.88,NNW,346,15.0,22.0,92,0.00,,,0.01,weatherlink.com 1.10,2013-09-15 12:04:00,
2013-09-15 07:19:00,58.2,56.0,29.89,North,8,17.0,20.0,92,0.00,,,0.01,weatherlink.com 1.10,2013-09-15 12:19:00,
2013-09-15 07:34:00,57.9,56.0,29.91,NNW,342,19.0,21.0,92,0.00,,,0.01,weatherlink.com 1.10,2013-09-15 12:34:00,
2013-09-15 07:49:00,57.8,55.0,29.92,NNE,13,18.0,24.0,91,0.00,,,0.01,weatherlink.com 1.10,2013-09-15 12:49:00,
2013-09-15 08:04:00,57.7,55.0,29.93,NNW,340,9.0,22.0,91,0.00,,,0.01,weatherlink.com 1.10,2013-09-15 13:04:00,
2013-09-15 08:19:00,57.5,55.0,29.94,NNW,340,15.0,18.0,91,0.00,,,0.01,weatherlink.com 1.10,2013-09-15 13:19:00,
2013-09-15 08:34:00,57.4,55.0,29.95,North,11,10.0,20.0,90,0.00,,,0.01,weatherlink.com 1.10,2013-09-15 13:34:00,
2013-09-15 08:49:00,57.3,55.0,29.95,NW,320,14.0,19.0,90,0.00,,,0.01,weatherlink.com 1.10,2013-09-15 13:49:00,
2013-09-15 09:04:00,57.5,54.0,29.96,NNE,20,14.0,20.0,89,0.00,,,0.01,weatherlink.com 1.10,2013-09-15 14:04:00,
2013-09-15 09:19:00,57.6,54.0,29.97,NNE,20,14.0,22.0,89,0.00,,,0.01,weatherlink.com 1.10,2013-09-15 14:19:00,
2013-09-15 09:34:00,57.6,54.0,29.98,NE,43,10.0,23.0,88,0.00,,,0.01,weatherlink.com 1.10,2013-09-15 14:34:00,
2013-09-15 09:49:00,57.6,54.0,29.99,NNE,30,14.0,21.0,88,0.00,,,0.01,weatherlink.com 1.10,2013-09-15 14:49:00,
2013-09-15 10:04:00,57.7,54.0,30.00,North,358,13.0,23.0,87,0.00,,,0.01,weatherlink.com 1.10,2013-09-15 15:04:00,
2013-09-15 10:19:00,57.6,54.0,30.00,North,359,12.0,22.0,87,0.00,,,0.01,weatherlink.com 1.10,2013-09-15 15:19:00,
2013-09-15 10:34:00,57.7,54.0,30.01,North,359,16.0,22.0,86,0.00,,,0.01,weatherlink.com 1.10,2013-09-15 15:34:00,
2013-09-15 10:49:00,57.8,54.0,30.02,NE,39,14.0,22.0,87,0.00,,,0.01,weatherlink.com 1.10,2013-09-15 15:49:00,
2013-09-15 11:04:00,58.1,54.0,30.02,NW,316,11.0,25.0,85,0.00,,,0.01,weatherlink.com 1.10,2013-09-15 16:04:00,
2013-09-15 11:19:00,58.3,54.0,30.03,NE,37,10.0,24.0,85,0.00,,,0.01,weatherlink.com 1.10,2013-09-15 16:19:00,
2013-09-15 11:34:00,58.2,54.0,30.04,NNE,27,18.0,24.0,85,0.00,,,0.01,weatherlink.com 1.10,2013-09-15 16:34:00,
2013-09-15 11:49:00,58.4,54.0,30.05,NE,44,13.0,19.0,85,0.00,,,0.01,weatherlink.com 1.10,2013-09-15 16:49:00,
2013-09-15 12:05:00,58.7,54.0,30.05,NNE,33,16.0,21.0,84,0.00,,,0.01,weatherlink.com 1.10,2013-09-15 17:05:00,
2013-09-15 12:20:00,58.7,54.0,30.06,North,354,9.0,21.0,84,0.00,,,0.01,weatherlink.com 1.10,2013-09-15 17:20:00,
2013-09-15 12:35:00,58.6,54.0,30.07,NNW,344,8.0,17.0,84,0.00,,,0.01,weatherlink.com 1.10,2013-09-15 17:35:00,
2013-09-15 12:50:00,59.3,54.0,30.07,NNE,21,15.0,23.0,81,0.00,,,0.01,weatherlink.com 1.10,2013-09-15 17:50:00,
2013-09-15 13:05:00,59.7,54.0,30.08,NE,40,11.0,20.0,82,0.00,,,0.01,weatherlink.com 1.10,2013-09-15 18:05:00,
2013-09-15 13:20:00,60.2,54.0,30.09,North,8,7.0,20.0,80,0.00,,,0.01,weatherlink.com 1.10,2013-09-15 18:20:00,
2013-09-15 13:35:00,61.1,54.0,30.09,NE,49,12.0,21.0,77,0.00,,,0.01,weatherlink.com 1.10,2013-09-15 18:35:00,
2013-09-15 13:50:00,61.6,55.0,30.09,NNW,333,12.0,20.0,78,0.00,,,0.01,weatherlink.com 1.10,2013-09-15 18:50:00,
2013-09-15 14:05:00,62.0,54.0,30.10,NE,49,12.0,19.0,76,0.00,,,0.01,weatherlink.com 1.10,2013-09-15 19:05:00,
2013-09-15 14:20:00,62.5,54.0,30.10,NE,34,14.0,18.0,73,0.00,,,0.01,weatherlink.com 1.10,2013-09-15 19:20:00,
2013-09-15 14:35:00,63.0,54.0,30.10,North,1,9.0,19.0,73,0.00,,,0.01,weatherlink.com 1.10,2013-09-15 19:35:00,
2013-09-15 14:50:00,63.6,54.0,30.11,NNE,23,14.0,18.0,72,0.00,,,0.01,weatherlink.com 1.10,2013-09-15 19:50:00,
2013-09-15 15:05:00,63.7,54.0,30.10,NNE,25,11.0,22.0,70,0.00,,,0.01,weatherlink.com 1.10,2013-09-15 20:05:00,
2013-09-15 15:20:00,64.7,54.0,30.11,NNE,25,11.0,18.0,68,0.00,,,0.01,weatherlink.com 1.10,2013-09-15 20:20:00,
2013-09-15 15:35:00,64.3,54.0,30.11,NE,46,13.0,16.0,69,0.00,,,0.01,weatherlink.com 1.10,2013-09-15 20:35:00,
2013-09-15 15:50:00,64.0,54.0,30.12,NNE,16,15.0,18.0,70,0.00,,,0.01,weatherlink.com 1.10,2013-09-15 20:50:00,
2013-09-15 16:05:00,63.8,54.0,30.12,North,10,16.0,20.0,71,0.00,,,0.01,weatherlink.com 1.10,2013-09-15 21:05:00,
2013-09-15 16:20:00,64.1,54.0,30.12,NNE,23,11.0,17.0,70,0.00,,,0.01,weatherlink.com 1.10,2013-09-15 21:20:00,
2013-09-15 16:35:00,63.5,54.0,30.13,NE,39,12.0,17.0,70,0.00,,,0.01,weatherlink.com 1.10,2013-09-15 21:35:00,
2013-09-15 16:50:00,63.3,53.0,30.14,NNE,17,12.0,16.0,70,0.00,,,0.01,weatherlink.com 1.10,2013-09-15 21:50:00,
2013-09-15 17:05:00,63.0,53.0,30.14,NNE,19,10.0,17.0,70,0.00,,,0.01,weatherlink.com 1.10,2013-09-15 22:05:00,
2013-09-15 17:20:00,62.6,53.0,30.14,NE,37,9.0,17.0,70,0.00,,,0.01,weatherlink.com 1.10,2013-09-15 22:20:00,
2013-09-15 17:35:00,62.2,52.0,30.15,NE,42,13.0,17.0,70,0.00,,,0.01,weatherlink.com 1.10,2013-09-15 22:35:00,
2013-09-15 17:50:00,61.9,53.0,30.15,NE,44,12.0,19.0,73,0.00,,,0.01,weatherlink.com 1.10,2013-09-15 22:50:00,
2013-09-15 18:05:00,61.7,53.0,30.16,ENE,69,9.0,19.0,73,0.00,,,0.01,weatherlink.com 1.10,2013-09-15 23:05:00,
2013-09-15 18:20:00,61.6,54.0,30.16,NE,54,8.0,13.0,76,0.00,,,0.01,weatherlink.com 1.10,2013-09-15 23:20:00,
2013-09-15 18:35:00,61.5,54.0,30.17,ENE,63,11.0,16.0,77,0.00,,,0.01,weatherlink.com 1.10,2013-09-15 23:35:00,
2013-09-15 18:50:00,61.2,54.0,30.18,ENE,65,9.0,17.0,77,0.00,,,0.01,weatherlink.com 1.10,2013-09-15 23:50:00,
2013-09-15 19:05:00,60.6,54.0,30.18,NNE,22,8.0,17.0,79,0.00,,,0.01,weatherlink.com 1.10,2013-09-16 00:05:00,
2013-09-15 19:20:00,60.4,54.0,30.18,NE,44,8.0,15.0,79,0.00,,,0.01,weatherlink.com 1.10,2013-09-16 00:20:00,
2013-09-15 19:35:00,60.1,54.0,30.18,NE,39,10.0,15.0,80,0.00,,,0.01,weatherlink.com 1.10,2013-09-16 00:35:00,
2013-09-15 19:50:00,60.1,54.0,30.18,NE,42,5.0,14.0,80,0.00,,,0.01,weatherlink.com 1.10,2013-09-16 00:50:00,
2013-09-15 20:05:00,60.1,54.0,30.19,North,358,5.0,12.0,79,0.00,,,0.01,weatherlink.com 1.10,2013-09-16 01:05:00,
2013-09-15 20:20:00,59.7,53.0,30.20,ENE,61,4.0,10.0,78,0.00,,,0.01,weatherlink.com 1.10,2013-09-16 01:20:00,
2013-09-15 20:35:00,58.3,52.0,30.21,NE,42,1.0,4.0,80,0.00,,,0.01,weatherlink.com 1.10,2013-09-16 01:35:00,
2013-09-15 20:50:00,57.5,52.0,30.22,ENE,66,1.0,2.0,82,0.00,,,0.01,weatherlink.com 1.10,2013-09-16 01:50:00,
2013-09-15 21:06:00,55.9,51.0,30.22,NE,35,0.0,4.0,83,0.00,,,0.01,weatherlink.com 1.10,2013-09-16 02:06:00,
2013-09-15 21:21:00,54.8,51.0,30.23,NE,35,0.0,0.0,87,0.00,,,0.01,weatherlink.com 1.10,2013-09-16 02:21:00,
2013-09-15 21:36:00,53.4,50.0,30.23,NE,34,0.0,1.0,89,0.00,,,0.01,weatherlink.com 1.10,2013-09-16 02:36:00,
2013-09-15 21:51:00,52.3,50.0,30.24,NNE,16,0.0,1.0,91,0.00,,,0.01,weatherlink.com 1.10,2013-09-16 02:51:00,
2013-09-15 22:06:00,51.5,49.0,30.24,North,6,1.0,1.0,92,0.00,,,0.01,weatherlink.com 1.10,2013-09-16 03:06:00,
2013-09-15 22:21:00,50.8,49.0,30.24,NE,39,0.0,1.0,93,0.00,,,0.01,weatherlink.com 1.10,2013-09-16 03:21:00,
2013-09-15 22:36:00,49.9,48.0,30.24,NNE,13,2.0,2.0,94,0.00,,,0.01,weatherlink.com 1.10,2013-09-16 03:36:00,
2013-09-15 22:51:00,49.9,49.0,30.25,NE,50,2.0,2.0,95,0.00,,,0.01,weatherlink.com 1.10,2013-09-16 03:51:00,
2013-09-15 23:06:00,49.5,48.0,30.24,NE,41,2.0,3.0,95,0.00,,,0.01,weatherlink.com 1.10,2013-09-16 04:06:00,
2013-09-15 23:21:00,49.1,48.0,30.25,NE,43,1.0,2.0,95,0.00,,,0.01,weatherlink.com 1.10,2013-09-16 04:21:00,
2013-09-15 23:36:00,48.4,47.0,30.25,NNE,30,2.0,2.0,96,0.00,,,0.01,weatherlink.com 1.10,2013-09-16 04:36:00,
2013-09-15 23:51:00,48.7,48.0,30.26,NNW,339,2.0,3.0,96,0.00,,,0.01,weatherlink.com 1.10,2013-09-16 04:51:00,